Regional Weather Roundup
Issued by NWS Glasgow, MT

Home | Current Version | Previous Version | Text Only | Print | Product List | Glossary On
Versions: 1 2 3 4 5 6 7 8 9 10 11 12 13 14 15 16 17 18 19 20 21 22 23 24 25 26 27 28 29 30 31 32 33 34 35 36 37 38 39 40 41 42 43 44 45 46 47 48 49 50
000
ASUS45 KGGW 291115
RWRGGW
HOURLY WEATHER ROUNDUP FOR NORTHEAST MONTANA
NATIONAL WEATHER SERVICE GLASGOW MONTANA
500 AM MDT SUN MAR 29 2015

NOTE: "FAIR" INDICATES FEW OR NO CLOUDS BELOW 12,000 FEET WITH NO
SIGNIFICANT WEATHER AND/OR OBSTRUCTIONS TO VISISBILITY.

NORTHEAST MONTANA


CITY           SKY/WX    TMP DP  RH WIND       PRES   REMARKS
GLASGOW        CLEAR     37  33  85 NW5       30.08R
PLENTYWOOD       N/A     35  33  92 NW15        N/A
WOLF POINT     CLEAR     38  34  85 W9        30.07R
JORDAN           N/A     36  34  92 W6        30.12S
WINNETT          N/A     38  30  73 SW7         N/A
SIDNEY         CLEAR     37  34  87 W10       30.05R
GLENDIVE         N/A     36  32  87 W9        30.10R
MALTA            N/A     36  35  96 W5          N/A
SCOBEY           N/A     34  28  79 CALM      30.01R

FORT PECK REPORTS


CITY           SKY/WX    TMP DP  RH WIND       PRES   REMARKS
FORT PECK        N/A     40  37  89 W10         N/A
THE PINES        N/A     39  36  89 SW3G12      N/A

SOUTHEAST MONTANA


CITY           SKY/WX    TMP DP  RH WIND       PRES   REMARKS
BILLINGS       CLEAR     44  23  43 W20       30.20R
MILES CITY     CLOUDY    42  35  76 NW9       30.16S
BAKER          CLEAR     36  32  85 NW16      30.09R
LIVINGSTON     CLEAR     40  21  46 W15       30.24F

CENTRAL MONTANA


CITY           SKY/WX    TMP DP  RH WIND       PRES   REMARKS
HAVRE          PTCLDY    36  33  89 SW13      30.12S
LEWISTOWN      CLEAR     37  29  72 SW14      30.17R
GREAT FALLS    CLEAR     39  28  64 SW15      30.16F
CUT BANK       PTCLDY    39  29  67 W20       30.09F
HELENA         MOCLDY    41  25  53 W7        30.26R
BUTTE          PTCLDY    28  20  71 S6        30.30S
BOZEMAN        CLEAR     29  20  69 S7        30.30R

WESTERN MONTANA


CITY           SKY/WX    TMP DP  RH WIND       PRES   REMARKS
MISSOULA       MOCLDY    33  28  81 E6        30.32F
KALISPELL      NOT AVBL

NORTH DAKOTA


CITY           SKY/WX    TMP DP  RH WIND       PRES   REMARKS
WILLISTON      CLEAR     37  33  85 NW16      30.00R
DICKINSON      CLEAR     35  31  85 NW17      29.97R
MINOT          CLEAR     36  31  82 NW21G29   29.83R
BISMARCK       CLOUDY    41  36  82 NW31G45   29.81R

SOUTHERN SASKATCHEWAN


CITY           SKY/WX    TMP DP  RH WIND       PRES   REMARKS
REGINA         CLEAR     32  30  93 W9        29.96R
ESTEVAN        CLEAR     34  32  93 NW18G26   29.93R
SWIFT CURRENT  PTCLDY    32  32 100 W15G21    30.03S



USA.gov is the U.S. government's official web portal to all federal, state and local government web resources and services.